DELTA 1 DEB, 10757

Orbit data source: Space-Track

DELTA 1 DEB, 10757 is space debris in SSO originally from a launch on Thu, 29 Jul 1976 UTC launched from the Air Force Western Test Range (AFWTR). Debris objects in space refer to the collection of defunct objects orbiting the Earth. Examples of debris include non-operational satellites, rocket bodies, and fragments generated from explosions, collisions, or faulty payload assembly.

Loading next visibility...
Identifier
10757, 1976-077BE
Orbit
SSO
Country
Flag of USUS
Related business
Manufacturer
Unknown
Mission
Spacecraft
Bus & Motor
Unknown
Mass
Unknown
Launch date (UTC)
1976-07-29 (50 years ago)
Launch vehicle
Unknown
Launch site
Air Force Western Test Range (AFWTR)
Object type
Payload
Rocket body
Debris
Shape & HBR
Unknown shape, 0.1 m
Radar Cross Section
Small (<0.1 m²)

Expand to show TLE details & history
Last TLE update: 2 days ago

TLE from 2 days ago
0 DELTA 1 DEB
1 10757U 76077BE  26031.92027655 -.00000282  00000-0 -27533-2 0  9991
2 10757 101.9099  90.8809 0227826 279.4166 263.7752 12.00545715167339
Epoch: 2026-01-31T22:05Z
TLE epoch observation values (Epoch: 2026-01-31T22:05:11.893Z)
Latitude
-0.69781°
Longitude
168.29752°
Altitude
1,705.032 km
Speed
7.013 km/s
True Right ascension
18h 02m 56s
True Declination
0° 41' 39"
Sunlit
Object was in daylight at epoch
Visualization orbit readout
Latitude
Unknown
Longitude
Unknown
Altitude
Unknown
Speed
Unknown
Apparent Right ascension
Unknown
Apparent Declination
Unknown
Sunlit
N/A
Visualization observer readout
Local Sidereal Time
02:45:35
Azimuth
Unknown
Elevation
Unknown
Doppler factor
Unknown
Orbital elements
Apogee altitude
1,859.533 km
Perigee altitude
1,492.542 km
Semi-major axis
8,054.175 km
Eccentricity
0.02278
Inclination
101.9099°
RAAN
90.8809°
Arg. of periapsis
279.4166°
True anomaly
261.18877°
Mean anomaly
263.7752°
Eccentric anomaly
262.48108°
Mean motion
3.0027 °/min
Orbital period
119.89 mins
BSTAR
-0.0027533
Loading maneuver chart data...
Computing Atmospheric mass density...
Loading historical data...
Loading historical data...
Loading historical data...
Loading historical data...
Loading historical data...
Loading historical data...
Loading historical data...

Documentation

Showing up to 5 results
|